2023 RW9                                            PHA, Earth MOID = 0.0485 AU
Epoch 2023 Sept. 13.0 TT = JDT 2460200.5                Veres                   
M  65.91723              (2000.0)            P               Q                  
n   0.91109691     Peri.   58.98412     -0.59350039     +0.80325363             
a   1.0538036      Node   173.83905     -0.79954815     -0.59561125             
e   0.4732124      Incl.   28.01375     +0.09208713     +0.00555419             
P   1.08           H   22.05          G   0.15           U   8                  
Residuals in seconds of arc
230910 F52  0.1-  0.4+    230914 958  0.6+  1.0-    230914 B72  0.2+  0.0
230913 W68  0.6+  1.1+    230914 M28  1.0-  1.9+    230914 M28  1.2-  1.2+
230913 W68  0.5+  0.1+    230914 M28  0.8-  2.0+    230914 M28  1.2-  2.3+
230913 W68  1.2+  0.0     230914 M28  0.9-  1.8+    230914 M28  1.4-  1.4+
230913 W68  0.1+  0.8-    230914 L65  0.3-  0.6-    230914 J95  0.1+  0.1-
230913 H36  0.4-  0.0     230914 L65  0.2-  0.2+    230914 J95  0.0   0.2-
230913 H36  0.5-  0.0     230914 033  0.2-  0.2+    230914 J95  0.1-  0.1+
230913 H36  0.1-  0.0     230914 033  0.0   0.3+    230914 J95  0.1+  0.1+
230913 X09  1.0-  0.7-    230914 033  0.2-  0.1+    230914 M21  0.1+  0.1+
230913 X09  1.2-  0.2+    230914 H21  0.1-  0.2+    230914 M21  0.1-  0.1-
230913 C40  0.3-  0.3+    230914 H21  0.2-  0.3+    230914 B72  0.2-  0.3-
230913 C40  0.5-  0.1+    230914 H21  0.2-  0.2+    230914 B72  0.1-  0.0
230913 C40  0.1+  0.3-    230914 H21  0.2-  0.2+    230914 B72  0.1+  0.3+
230913 C40  0.4-  0.2-    230914 H21  0.1-  0.3+    230914 B72  0.0   0.1+
230913 C40  0.1+  0.1-    230914 H21  0.2-  0.2+    230914 M21  0.4+  0.0
230913 C40  0.3-  0.0     230914 U52  0.4+  0.4+    230915 G01  0.5+  0.6+
230913 C40  0.1+  0.2-    230914 U52  0.1-  0.6-    230915 G01  0.1+  0.3+
230913 C40  0.1+  0.1+    230914 U52  0.1-  0.3+    230915 033  0.1+  0.1+
230913 C40  0.2-  0.1+    230914 F52  0.1+  0.0     230915 033  0.0   0.1+
230913 I93  0.2-  0.1+    230914 F52  0.0   0.2-    230915 033  0.1+  0.2+
230913 I93  0.3-  0.3+    230914 F52  0.2+  0.1+    230915 G01  0.8-  0.4+
230913 I93  0.2-  0.2+    230914 F52  0.1+  0.1+    230915 G01  0.7+  0.0
230913 C40  0.1+  0.0     230914 A17  0.0   0.5+    230915 M49  0.1+  0.6+
230913 C40  0.2-  0.0     230914 A17  0.4-  0.1-    230915 M49  0.1-  0.1-
230913 C40  0.2-  0.0     230914 A17  0.0   0.2-    230915 M49  0.1-  0.0
230913 958  0.3-  0.2-    230914 B72  0.3-  0.1+
230914 958  0.4+  0.7-    230914 B72  0.1+  0.0
Ephemeris:
2023 RW9                 a,e,i = 1.05, 0.47, 28                  q = 0.5551
Date    TT    R. A. (2000) Decl.     Delta      r    Elong.  Phase     V
2023 08 16    08 50 19.1 +59 32 18   0.2838  0.8428    46.5   119.4    23.7
...
2023 08 31    05 51 28.0 +58 34 57   0.1539  0.9744    72.5    98.9    21.5
...
2023 09 08    03 26 43.2 +38 30 22   0.1077  1.0404   104.8    69.5    19.7
...
2023 09 14    02 05 30.9 +09 42 22   0.1064  1.0875   137.9    38.3    18.9
2023 09 15    01 55 01.4 +05 04 29   0.1098  1.0952   142.6    33.9    18.9
2023 09 16    01 45 17.9 +00 44 31   0.1141  1.1027   146.7    30.1    18.9
...
2023 09 22    01 00 13.3 -18 05 49   0.1543  1.1468   156.2    20.7    19.3
...
2023 09 30    00 24 16.2 -29 36 45   0.2292  1.2020   147.9    26.3    20.4
...
2023 10 15    23 54 06.0 -35 47 05   0.3945  1.2942   131.8    35.1    22.0
M. P. C. Staff               (C) Copyright 2023 MPC           M.P.E.C. 2023-R218
    
    
More information about the Iaude
mailing list